Location: DARK SKY Beskydy - Park tmavé oblohy, www.darkskybeskydy.cz
(49.4926°N, 18.5016°E)
Time: 03:07:35
(UTC+02:00)

A-11 Canister half - Pass Details

Date: 29 February 2024
Orbit: 1513 x 1686 km, 47.2° (Epoch: 24 April)

Event Time Altitude Azimuth Distance (km) Brightness Sun altitude
Rises 06:07:22 0° 287° (WNW) 4,919 - -4.5°
Exits shadow 06:08:50 - 285° (WNW) 4,469 10.7 -4.2°
Reaches altitude 10° 06:10:41 10° 282° (WNW) 3,914 10.5 -3.9°
Maximum altitude 06:20:08 50° 212° (SSW) 1,984 9.5 -2.4°
Drops below altitude 10° 06:29:16 10° 140° (SE) 3,776 11.9 -1.0°
Sets 06:32:25 0° 136° (SE) 4,736 12.6 -0.4°
